Year,Month,Day,Hour,Minute,Value (Times are PST for windgust in km/hr)
2014,02,14,00,00,3.20
2014,02,14,00,01,3.20
2014,02,14,00,02,3.20
2014,02,14,00,03,1.60
2014,02,14,00,04,3.20
2014,02,14,00,05,3.20
2014,02,14,00,06,1.60
2014,02,14,00,08,4.80
2014,02,14,00,09,4.80
2014,02,14,00,10,3.20
2014,02,14,00,11,4.80
2014,02,14,00,12,3.20
2014,02,14,00,13,3.20
2014,02,14,00,14,1.60
2014,02,14,00,41,1.60
2014,02,14,00,42,1.60
2014,02,14,00,48,1.60
2014,02,14,00,55,3.20
2014,02,14,00,56,3.20
2014,02,14,00,58,1.60
2014,02,14,01,02,4.80
2014,02,14,01,03,4.80
2014,02,14,01,06,3.20
2014,02,14,01,07,3.20
2014,02,14,01,08,4.80
2014,02,14,01,12,6.40
2014,02,14,01,13,6.40
2014,02,14,01,16,6.40
2014,02,14,01,17,4.80
2014,02,14,01,18,3.20
2014,02,14,01,19,1.60
2014,02,14,01,20,3.20
2014,02,14,01,21,4.80
2014,02,14,01,23,1.60
2014,02,14,01,25,3.20
2014,02,14,01,26,6.40
2014,02,14,01,27,3.20
2014,02,14,01,28,1.60
2014,02,14,01,29,1.60
2014,02,14,01,31,1.60
2014,02,14,01,35,3.20
2014,02,14,01,38,1.60
2014,02,14,01,39,6.40
2014,02,14,01,40,6.40
2014,02,14,01,41,8.10
2014,02,14,01,42,4.80
2014,02,14,01,43,3.20
2014,02,14,01,44,3.20
2014,02,14,01,45,6.40
2014,02,14,01,46,3.20
2014,02,14,01,47,8.10
2014,02,14,01,48,9.60
2014,02,14,01,49,1.60
2014,02,14,01,50,11.30
2014,02,14,01,51,9.60
2014,02,14,01,52,16.10
2014,02,14,01,53,14.50
2014,02,14,01,54,11.30
2014,02,14,01,55,11.30
2014,02,14,01,56,4.80
2014,02,14,01,57,12.90
2014,02,14,01,58,3.20
2014,02,14,01,59,9.60
2014,02,14,02,00,8.10
2014,02,14,02,01,1.60
2014,02,14,02,02,4.80
2014,02,14,02,03,8.10
2014,02,14,02,04,6.40
2014,02,14,02,05,4.80
2014,02,14,02,06,8.10
2014,02,14,02,07,11.30
2014,02,14,02,08,4.80
2014,02,14,02,09,8.10
2014,02,14,02,10,14.50
2014,02,14,02,11,8.10
2014,02,14,02,12,19.30
2014,02,14,02,13,16.10
2014,02,14,02,14,11.30
2014,02,14,02,15,11.30
2014,02,14,02,16,17.70
2014,02,14,02,17,11.30
2014,02,14,02,18,16.10
2014,02,14,02,19,4.80
2014,02,14,02,20,16.10
2014,02,14,02,21,11.30
2014,02,14,02,22,24.20
2014,02,14,02,23,19.30
2014,02,14,02,24,11.30
2014,02,14,02,25,9.60
2014,02,14,02,26,16.10
2014,02,14,02,27,14.50
2014,02,14,02,28,12.90
2014,02,14,02,29,16.10
2014,02,14,02,30,8.10
2014,02,14,02,31,16.10
2014,02,14,02,32,9.60
2014,02,14,02,33,24.20
2014,02,14,02,34,19.30
2014,02,14,02,35,17.70
2014,02,14,02,36,14.50
2014,02,14,02,37,25.70
2014,02,14,02,38,30.60
2014,02,14,02,39,20.90
2014,02,14,02,40,19.30
2014,02,14,02,41,37.00
2014,02,14,02,42,19.30
2014,02,14,02,43,8.10
2014,02,14,02,44,22.50
2014,02,14,02,45,19.30
2014,02,14,02,46,16.10
2014,02,14,02,47,19.30
2014,02,14,02,48,9.60
2014,02,14,02,49,20.90
2014,02,14,02,50,16.10
2014,02,14,02,51,11.30
2014,02,14,02,52,11.30
2014,02,14,02,53,19.30
2014,02,14,02,54,25.70
2014,02,14,02,55,25.70
2014,02,14,02,56,30.60
2014,02,14,02,57,11.30
2014,02,14,02,58,22.50
2014,02,14,02,59,19.30
2014,02,14,03,00,24.20
2014,02,14,03,01,20.90
2014,02,14,03,02,19.30
2014,02,14,03,03,16.10
2014,02,14,03,04,22.50
2014,02,14,03,05,29.00
2014,02,14,03,06,24.20
2014,02,14,03,07,29.00
2014,02,14,03,08,17.70
2014,02,14,03,09,22.50
2014,02,14,03,10,17.70
2014,02,14,03,11,27.40
2014,02,14,03,12,27.40
2014,02,14,03,13,20.90
2014,02,14,03,14,30.60
2014,02,14,03,15,33.80
2014,02,14,03,16,25.70
2014,02,14,03,17,25.70
2014,02,14,03,18,32.20
2014,02,14,03,19,30.60
2014,02,14,03,20,24.20
2014,02,14,03,21,35.40
2014,02,14,03,22,29.00
2014,02,14,03,23,33.80
2014,02,14,03,24,27.40
2014,02,14,03,25,33.80
2014,02,14,03,26,17.70
2014,02,14,03,27,32.20
2014,02,14,03,28,32.20
2014,02,14,03,29,19.30
2014,02,14,03,30,29.00
2014,02,14,03,31,25.70
2014,02,14,03,32,22.50
2014,02,14,03,33,19.30
2014,02,14,03,34,33.80
2014,02,14,03,35,24.20
2014,02,14,03,36,16.10
2014,02,14,03,37,27.40
2014,02,14,03,38,41.80
2014,02,14,03,39,27.40
2014,02,14,03,40,17.70
2014,02,14,03,41,27.40
2014,02,14,03,42,38.60
2014,02,14,03,43,38.60
2014,02,14,03,44,22.50
2014,02,14,03,45,35.40
2014,02,14,03,46,40.20
2014,02,14,03,47,33.80
2014,02,14,03,48,20.90
2014,02,14,03,49,30.60
2014,02,14,03,50,16.10
2014,02,14,03,51,41.80
2014,02,14,03,52,24.20
2014,02,14,03,53,27.40
2014,02,14,03,54,37.00
2014,02,14,03,55,32.20
2014,02,14,03,56,25.70
2014,02,14,03,57,32.20
2014,02,14,03,58,29.00
2014,02,14,03,59,35.40
2014,02,14,04,00,32.20
2014,02,14,04,01,40.20
2014,02,14,04,02,32.20
2014,02,14,04,03,30.60
2014,02,14,04,04,19.30
2014,02,14,04,05,38.60
2014,02,14,04,06,30.60
2014,02,14,04,07,32.20
2014,02,14,04,08,48.30
2014,02,14,04,09,33.80
2014,02,14,04,10,30.60
2014,02,14,04,11,22.50
2014,02,14,04,12,20.90
2014,02,14,04,13,27.40
2014,02,14,04,14,40.20
2014,02,14,04,15,27.40
2014,02,14,04,16,35.40
2014,02,14,04,17,37.00
2014,02,14,04,18,37.00
2014,02,14,04,19,24.20
2014,02,14,04,20,30.60
2014,02,14,04,21,37.00
2014,02,14,04,22,33.80
2014,02,14,04,23,35.40
2014,02,14,04,24,46.70
2014,02,14,04,25,33.80
2014,02,14,04,26,37.00
2014,02,14,04,27,30.60
2014,02,14,04,28,29.00
2014,02,14,04,29,27.40
2014,02,14,04,30,22.50
2014,02,14,04,31,22.50
2014,02,14,04,32,27.40
2014,02,14,04,33,24.20
2014,02,14,04,34,29.00
2014,02,14,04,35,25.70
2014,02,14,04,36,33.80
2014,02,14,04,37,30.60
2014,02,14,04,38,19.30
2014,02,14,04,39,29.00
2014,02,14,04,40,32.20
2014,02,14,04,41,37.00
2014,02,14,04,42,29.00
2014,02,14,04,43,17.70
2014,02,14,04,44,24.20
2014,02,14,04,45,29.00
2014,02,14,04,46,19.30
2014,02,14,04,47,22.50
2014,02,14,04,48,29.00
2014,02,14,04,49,29.00
2014,02,14,04,50,30.60
2014,02,14,04,51,19.30
2014,02,14,04,52,20.90
2014,02,14,04,53,22.50
2014,02,14,04,54,43.50
2014,02,14,04,55,33.80
2014,02,14,04,56,27.40
2014,02,14,04,57,19.30
2014,02,14,04,58,25.70
2014,02,14,04,59,40.20
2014,02,14,05,00,30.60
2014,02,14,05,01,32.20
2014,02,14,05,02,30.60
2014,02,14,05,03,33.80
2014,02,14,05,04,32.20
2014,02,14,05,05,27.40
2014,02,14,05,06,37.00
2014,02,14,05,07,24.20
2014,02,14,05,08,25.70
2014,02,14,05,09,24.20
2014,02,14,05,10,19.30
2014,02,14,05,11,33.80
2014,02,14,05,12,22.50
2014,02,14,05,13,27.40
2014,02,14,05,14,24.20
2014,02,14,05,15,32.20
2014,02,14,05,16,24.20
2014,02,14,05,17,25.70
2014,02,14,05,18,22.50
2014,02,14,05,19,25.70
2014,02,14,05,20,19.30
2014,02,14,05,21,24.20
2014,02,14,05,22,19.30
2014,02,14,05,23,19.30
2014,02,14,05,24,17.70
2014,02,14,05,25,19.30
2014,02,14,05,26,24.20
2014,02,14,05,27,17.70
2014,02,14,05,28,25.70
2014,02,14,05,29,22.50
2014,02,14,05,30,22.50
2014,02,14,05,31,17.70
2014,02,14,05,32,20.90
2014,02,14,05,33,24.20
2014,02,14,05,34,19.30
2014,02,14,05,35,20.90
2014,02,14,05,36,25.70
2014,02,14,05,37,22.50
2014,02,14,05,38,19.30
2014,02,14,05,39,11.30
2014,02,14,05,40,9.60
2014,02,14,05,41,16.10
2014,02,14,05,42,20.90
2014,02,14,05,43,19.30
2014,02,14,05,44,24.20
2014,02,14,05,45,19.30
2014,02,14,05,46,17.70
2014,02,14,05,47,17.70
2014,02,14,05,48,17.70
2014,02,14,05,49,19.30
2014,02,14,05,50,17.70
2014,02,14,05,51,9.60
2014,02,14,05,52,11.30
2014,02,14,05,53,19.30
2014,02,14,05,54,14.50
2014,02,14,05,55,9.60
2014,02,14,05,56,14.50
2014,02,14,05,57,19.30
2014,02,14,05,58,11.30
2014,02,14,05,59,16.10
2014,02,14,06,00,11.30
2014,02,14,06,01,17.70
2014,02,14,06,02,17.70
2014,02,14,06,03,11.30
2014,02,14,06,04,16.10
2014,02,14,06,05,14.50
2014,02,14,06,06,17.70
2014,02,14,06,07,16.10
2014,02,14,06,08,12.90
2014,02,14,06,09,19.30
2014,02,14,06,10,16.10
2014,02,14,06,11,16.10
2014,02,14,06,12,12.90
2014,02,14,06,13,19.30
2014,02,14,06,14,17.70
2014,02,14,06,15,20.90
2014,02,14,06,16,17.70
2014,02,14,06,17,19.30
2014,02,14,06,18,35.40
2014,02,14,06,19,27.40
2014,02,14,06,20,19.30
2014,02,14,06,21,14.50
2014,02,14,06,22,14.50
2014,02,14,06,23,11.30
2014,02,14,06,24,11.30
2014,02,14,06,25,12.90
2014,02,14,06,26,11.30
2014,02,14,06,27,19.30
2014,02,14,06,28,11.30
2014,02,14,06,29,11.30
2014,02,14,06,30,16.10
2014,02,14,06,31,14.50
2014,02,14,06,32,19.30
2014,02,14,06,33,17.70
2014,02,14,06,34,16.10
2014,02,14,06,35,19.30
2014,02,14,06,36,11.30
2014,02,14,06,37,17.70
2014,02,14,06,38,16.10
2014,02,14,06,39,11.30
2014,02,14,06,40,9.60
2014,02,14,06,41,14.50
2014,02,14,06,42,14.50
2014,02,14,06,43,9.60
2014,02,14,06,44,9.60
2014,02,14,06,45,11.30
2014,02,14,06,46,12.90
2014,02,14,06,47,14.50
2014,02,14,06,48,22.50
2014,02,14,06,49,29.00
2014,02,14,06,50,27.40
2014,02,14,06,51,17.70
2014,02,14,06,52,19.30
2014,02,14,06,53,27.40
2014,02,14,06,54,27.40
2014,02,14,06,55,27.40
2014,02,14,06,56,24.20
2014,02,14,06,57,32.20
2014,02,14,06,58,40.20
2014,02,14,06,59,22.50
2014,02,14,07,00,35.40
2014,02,14,07,01,25.70
2014,02,14,07,02,25.70
2014,02,14,07,03,27.40
2014,02,14,07,04,38.60
2014,02,14,07,05,32.20
2014,02,14,07,06,33.80
2014,02,14,07,07,35.40
2014,02,14,07,08,27.40
2014,02,14,07,09,29.00
2014,02,14,07,10,20.90
2014,02,14,07,11,27.40
2014,02,14,07,12,29.00
2014,02,14,07,13,27.40
2014,02,14,07,14,35.40
2014,02,14,07,15,32.20
2014,02,14,07,16,27.40
2014,02,14,07,17,29.00
2014,02,14,07,18,22.50
2014,02,14,07,19,32.20
2014,02,14,07,20,33.80
2014,02,14,07,21,27.40
2014,02,14,07,22,29.00
2014,02,14,07,23,24.20
2014,02,14,07,24,19.30
2014,02,14,07,25,29.00
2014,02,14,07,26,25.70
2014,02,14,07,27,14.50
2014,02,14,07,28,16.10
2014,02,14,07,29,16.10
2014,02,14,07,30,14.50
2014,02,14,07,31,24.20
2014,02,14,07,32,17.70
2014,02,14,07,33,20.90
2014,02,14,07,34,14.50
2014,02,14,07,35,17.70
2014,02,14,07,36,22.50
2014,02,14,07,37,24.20
2014,02,14,07,38,27.40
2014,02,14,07,39,20.90
2014,02,14,07,40,35.40
2014,02,14,07,41,27.40
2014,02,14,07,42,24.20
2014,02,14,07,43,25.70
2014,02,14,07,44,24.20
2014,02,14,07,45,17.70
2014,02,14,07,46,25.70
2014,02,14,07,47,33.80
2014,02,14,07,48,30.60
2014,02,14,07,49,27.40
2014,02,14,07,50,37.00
2014,02,14,07,51,24.20
2014,02,14,07,52,24.20
2014,02,14,07,53,27.40
2014,02,14,07,54,20.90
2014,02,14,07,55,16.10
2014,02,14,07,56,17.70
2014,02,14,07,57,22.50
2014,02,14,07,58,22.50
2014,02,14,07,59,25.70
2014,02,14,08,00,27.40
2014,02,14,08,01,37.00
2014,02,14,08,02,27.40
2014,02,14,08,03,22.50
2014,02,14,08,04,25.70
2014,02,14,08,05,27.40
2014,02,14,08,06,27.40
2014,02,14,08,07,19.30
2014,02,14,08,08,32.20
2014,02,14,08,09,30.60
2014,02,14,08,10,20.90
2014,02,14,08,11,20.90
2014,02,14,08,12,11.30
2014,02,14,08,13,11.30
2014,02,14,08,14,20.90
2014,02,14,08,15,16.10
2014,02,14,08,16,25.70
2014,02,14,08,17,32.20
2014,02,14,08,18,30.60
2014,02,14,08,19,20.90
2014,02,14,08,20,25.70
2014,02,14,08,21,29.00
2014,02,14,08,22,37.00
2014,02,14,08,23,33.80
2014,02,14,08,24,27.40
2014,02,14,08,25,22.50
2014,02,14,08,26,30.60
2014,02,14,08,27,22.50
2014,02,14,08,28,24.20
2014,02,14,08,29,25.70
2014,02,14,08,30,25.70
2014,02,14,08,31,29.00
2014,02,14,08,32,30.60
2014,02,14,08,33,32.20
2014,02,14,08,34,32.20
2014,02,14,08,35,27.40
2014,02,14,08,36,17.70
2014,02,14,08,37,19.30
2014,02,14,08,38,25.70
2014,02,14,08,39,24.20
2014,02,14,08,40,19.30
2014,02,14,08,41,24.20
2014,02,14,08,42,24.20
2014,02,14,08,43,20.90
2014,02,14,08,44,19.30
2014,02,14,08,45,24.20
2014,02,14,08,46,24.20
2014,02,14,08,47,32.20
2014,02,14,08,48,20.90
2014,02,14,08,49,19.30
2014,02,14,08,50,14.50
2014,02,14,08,51,9.60
2014,02,14,08,52,25.70
2014,02,14,08,53,17.70
2014,02,14,08,54,17.70
2014,02,14,08,55,20.90
2014,02,14,08,56,16.10
2014,02,14,08,57,25.70
2014,02,14,08,58,16.10
2014,02,14,08,59,19.30
2014,02,14,09,00,22.50
2014,02,14,09,01,29.00
2014,02,14,09,02,29.00
2014,02,14,09,03,33.80
2014,02,14,09,04,24.20
2014,02,14,09,05,20.90
2014,02,14,09,06,25.70
2014,02,14,09,07,27.40
2014,02,14,09,08,29.00
2014,02,14,09,09,30.60
2014,02,14,09,10,33.80
2014,02,14,09,11,32.20
2014,02,14,09,12,32.20
2014,02,14,09,13,33.80
2014,02,14,09,14,25.70
2014,02,14,09,15,20.90
2014,02,14,09,16,27.40
2014,02,14,09,17,27.40
2014,02,14,09,18,24.20
2014,02,14,09,19,29.00
2014,02,14,09,20,30.60
2014,02,14,09,21,22.50
2014,02,14,09,22,20.90
2014,02,14,09,23,32.20
2014,02,14,09,24,35.40
2014,02,14,09,25,19.30
2014,02,14,09,26,27.40
2014,02,14,09,27,29.00
2014,02,14,09,28,29.00
2014,02,14,09,29,24.20
2014,02,14,09,30,29.00
2014,02,14,09,31,35.40
2014,02,14,09,32,30.60
2014,02,14,09,33,16.10
2014,02,14,09,34,17.70
2014,02,14,09,35,29.00
2014,02,14,09,36,17.70
2014,02,14,09,37,19.30
2014,02,14,09,38,14.50
2014,02,14,09,39,17.70
2014,02,14,09,40,19.30
2014,02,14,09,41,17.70
2014,02,14,09,42,19.30
2014,02,14,09,43,16.10
2014,02,14,09,44,19.30
2014,02,14,09,45,16.10
2014,02,14,09,46,25.70
2014,02,14,09,47,14.50
2014,02,14,09,48,9.60
2014,02,14,09,49,9.60
2014,02,14,09,50,6.40
2014,02,14,09,51,9.60
2014,02,14,09,52,11.30
2014,02,14,09,53,11.30
2014,02,14,09,54,4.80
2014,02,14,09,55,3.20
2014,02,14,09,57,1.60
2014,02,14,09,59,11.30
2014,02,14,10,00,8.10
2014,02,14,10,01,6.40
2014,02,14,10,15,3.20
2014,02,14,10,19,4.80
2014,02,14,10,20,4.80
2014,02,14,10,22,3.20
2014,02,14,10,23,3.20
2014,02,14,10,24,1.60
2014,02,14,10,25,1.60
2014,02,14,10,26,1.60
2014,02,14,10,27,3.20
2014,02,14,10,28,3.20
2014,02,14,10,29,3.20
2014,02,14,10,30,6.40
2014,02,14,10,31,8.10
2014,02,14,10,32,17.70
2014,02,14,10,33,14.50
2014,02,14,10,34,11.30
2014,02,14,10,35,8.10
2014,02,14,10,36,11.30
2014,02,14,10,37,11.30
2014,02,14,10,38,8.10
2014,02,14,10,39,6.40
2014,02,14,10,40,8.10
2014,02,14,10,41,11.30
2014,02,14,10,42,9.60
2014,02,14,10,43,11.30
2014,02,14,10,44,14.50
2014,02,14,10,45,8.10
2014,02,14,10,46,9.60
2014,02,14,10,47,8.10
2014,02,14,10,48,9.60
2014,02,14,10,49,17.70
2014,02,14,10,50,9.60
2014,02,14,10,51,16.10
2014,02,14,10,52,11.30
2014,02,14,10,53,16.10
2014,02,14,10,54,19.30
2014,02,14,10,55,12.90
2014,02,14,10,56,11.30
2014,02,14,10,57,11.30
2014,02,14,10,58,11.30
2014,02,14,10,59,11.30
2014,02,14,11,00,11.30
2014,02,14,11,01,9.60
2014,02,14,11,02,16.10
2014,02,14,11,03,11.30
2014,02,14,11,04,11.30
2014,02,14,11,05,16.10
2014,02,14,11,06,16.10
2014,02,14,11,07,22.50
2014,02,14,11,08,20.90
2014,02,14,11,09,16.10
2014,02,14,11,10,20.90
2014,02,14,11,11,17.70
2014,02,14,11,12,22.50
2014,02,14,11,13,19.30
2014,02,14,11,14,19.30
2014,02,14,11,15,20.90
2014,02,14,11,16,20.90
2014,02,14,11,17,24.20
2014,02,14,11,18,19.30
2014,02,14,11,19,19.30
2014,02,14,11,20,20.90
2014,02,14,11,21,25.70
2014,02,14,11,22,27.40
2014,02,14,11,23,19.30
2014,02,14,11,24,17.70
2014,02,14,11,25,22.50
2014,02,14,11,26,17.70
2014,02,14,11,27,17.70
2014,02,14,11,28,19.30
2014,02,14,11,29,29.00
2014,02,14,11,30,24.20
2014,02,14,11,31,27.40
2014,02,14,11,32,19.30
2014,02,14,11,33,20.90
2014,02,14,11,34,35.40
2014,02,14,11,35,29.00
2014,02,14,11,36,24.20
2014,02,14,11,37,29.00
2014,02,14,11,38,20.90
2014,02,14,11,39,29.00
2014,02,14,11,40,33.80
2014,02,14,11,41,32.20
2014,02,14,11,42,30.60
2014,02,14,11,43,38.60
2014,02,14,11,44,27.40
2014,02,14,11,45,25.70
2014,02,14,11,46,27.40
2014,02,14,11,47,32.20
2014,02,14,11,48,29.00
2014,02,14,11,49,17.70
2014,02,14,11,50,30.60
2014,02,14,11,51,30.60
2014,02,14,11,52,27.40
2014,02,14,11,53,32.20
2014,02,14,11,54,29.00
2014,02,14,11,55,24.20
2014,02,14,11,56,29.00
2014,02,14,11,57,27.40
2014,02,14,11,58,29.00
2014,02,14,11,59,30.60
2014,02,14,12,00,29.00
2014,02,14,12,01,20.90
2014,02,14,12,02,22.50
2014,02,14,12,03,24.20
2014,02,14,12,04,25.70
2014,02,14,12,05,25.70
2014,02,14,12,06,32.20
2014,02,14,12,07,32.20
2014,02,14,12,08,32.20
2014,02,14,12,09,37.00
2014,02,14,12,10,33.80
2014,02,14,12,11,29.00
2014,02,14,12,12,29.00
2014,02,14,12,13,30.60
2014,02,14,12,14,29.00
2014,02,14,12,15,22.50
2014,02,14,12,16,22.50
2014,02,14,12,17,30.60
2014,02,14,12,18,32.20
2014,02,14,12,19,19.30
2014,02,14,12,20,20.90
2014,02,14,12,21,37.00
2014,02,14,12,22,30.60
2014,02,14,12,23,30.60
2014,02,14,12,24,41.80
2014,02,14,12,25,25.70
2014,02,14,12,26,19.30
2014,02,14,12,27,24.20
2014,02,14,12,28,25.70
2014,02,14,12,29,24.20
2014,02,14,12,30,32.20
2014,02,14,12,31,29.00
2014,02,14,12,32,27.40
2014,02,14,12,33,22.50
2014,02,14,12,34,24.20
2014,02,14,12,35,29.00
2014,02,14,12,36,27.40
2014,02,14,12,37,22.50
2014,02,14,12,38,24.20
2014,02,14,12,39,20.90
2014,02,14,12,40,27.40
2014,02,14,12,41,22.50
2014,02,14,12,42,22.50
2014,02,14,12,43,25.70
2014,02,14,12,44,27.40
2014,02,14,12,45,29.00
2014,02,14,12,46,35.40
2014,02,14,12,47,27.40
2014,02,14,12,48,24.20
2014,02,14,12,49,25.70
2014,02,14,12,50,27.40
2014,02,14,12,51,30.60
2014,02,14,12,52,22.50
2014,02,14,12,53,20.90
2014,02,14,12,54,22.50
2014,02,14,12,55,25.70
2014,02,14,12,56,19.30
2014,02,14,12,57,24.20
2014,02,14,12,58,17.70
2014,02,14,12,59,22.50
2014,02,14,13,00,19.30
2014,02,14,13,01,20.90
2014,02,14,13,02,27.40
2014,02,14,13,03,19.30
2014,02,14,13,04,20.90
2014,02,14,13,05,24.20
2014,02,14,13,06,20.90
2014,02,14,13,07,19.30
2014,02,14,13,08,22.50
2014,02,14,13,09,19.30
2014,02,14,13,10,19.30
2014,02,14,13,11,16.10
2014,02,14,13,12,27.40
2014,02,14,13,13,22.50
2014,02,14,13,14,25.70
2014,02,14,13,15,25.70
2014,02,14,13,16,25.70
2014,02,14,13,17,20.90
2014,02,14,13,18,24.20
2014,02,14,13,19,24.20
2014,02,14,13,20,17.70
2014,02,14,13,21,20.90
2014,02,14,13,22,24.20
2014,02,14,13,23,24.20
2014,02,14,13,24,20.90
2014,02,14,13,25,17.70
2014,02,14,13,26,22.50
2014,02,14,13,27,20.90
2014,02,14,13,28,19.30
2014,02,14,13,29,22.50
2014,02,14,13,30,20.90
2014,02,14,13,31,24.20
2014,02,14,13,32,27.40
2014,02,14,13,33,27.40
2014,02,14,13,34,17.70
2014,02,14,13,35,17.70
2014,02,14,13,36,20.90
2014,02,14,13,37,22.50
2014,02,14,13,38,27.40
2014,02,14,13,39,19.30
2014,02,14,13,40,25.70
2014,02,14,13,41,16.10
2014,02,14,13,42,17.70
2014,02,14,13,43,17.70
2014,02,14,13,44,24.20
2014,02,14,13,45,25.70
2014,02,14,13,46,22.50
2014,02,14,13,47,24.20
2014,02,14,13,48,27.40
2014,02,14,13,49,27.40
2014,02,14,13,50,27.40
2014,02,14,13,51,30.60
2014,02,14,13,52,30.60
2014,02,14,13,53,19.30
2014,02,14,13,54,24.20
2014,02,14,13,55,29.00
2014,02,14,13,56,25.70
2014,02,14,13,57,22.50
2014,02,14,13,58,16.10
2014,02,14,13,59,24.20
2014,02,14,14,00,27.40
2014,02,14,14,01,22.50
2014,02,14,14,02,19.30
2014,02,14,14,03,30.60
2014,02,14,14,04,24.20
2014,02,14,14,05,20.90
2014,02,14,14,06,22.50
2014,02,14,14,07,22.50
2014,02,14,14,08,20.90
2014,02,14,14,09,19.30
2014,02,14,14,10,20.90
2014,02,14,14,11,19.30
2014,02,14,14,12,12.90
2014,02,14,14,13,17.70
2014,02,14,14,14,17.70
2014,02,14,14,15,17.70
2014,02,14,14,16,19.30
2014,02,14,14,17,14.50
2014,02,14,14,18,11.30
2014,02,14,14,19,11.30
2014,02,14,14,20,16.10
2014,02,14,14,21,17.70
2014,02,14,14,22,17.70
2014,02,14,14,23,20.90
2014,02,14,14,24,20.90
2014,02,14,14,25,20.90
2014,02,14,14,26,14.50
2014,02,14,14,27,9.60
2014,02,14,14,28,19.30
2014,02,14,14,29,24.20
2014,02,14,14,30,22.50
2014,02,14,14,31,25.70
2014,02,14,14,32,17.70
2014,02,14,14,33,24.20
2014,02,14,14,34,16.10
2014,02,14,14,35,9.60
2014,02,14,14,36,22.50
2014,02,14,14,37,22.50
2014,02,14,14,38,24.20
2014,02,14,14,39,19.30
2014,02,14,14,40,19.30
2014,02,14,14,41,24.20
2014,02,14,14,42,17.70
2014,02,14,14,43,20.90
2014,02,14,14,44,17.70
2014,02,14,14,45,16.10
2014,02,14,14,46,22.50
2014,02,14,14,47,17.70
2014,02,14,14,48,16.10
2014,02,14,14,49,11.30
2014,02,14,14,50,12.90
2014,02,14,14,51,17.70
2014,02,14,14,52,17.70
2014,02,14,14,53,12.90
2014,02,14,14,54,20.90
2014,02,14,14,55,16.10
2014,02,14,14,56,9.60
2014,02,14,14,57,17.70
2014,02,14,14,58,17.70
2014,02,14,14,59,27.40
2014,02,14,15,00,17.70
2014,02,14,15,01,22.50
2014,02,14,15,02,17.70
2014,02,14,15,03,9.60
2014,02,14,15,04,11.30
2014,02,14,15,05,9.60
2014,02,14,15,06,19.30
2014,02,14,15,07,17.70
2014,02,14,15,08,19.30
2014,02,14,15,09,11.30
2014,02,14,15,10,20.90
2014,02,14,15,11,20.90
2014,02,14,15,12,22.50
2014,02,14,15,13,24.20
2014,02,14,15,14,19.30
2014,02,14,15,15,32.20
2014,02,14,15,16,27.40
2014,02,14,15,17,16.10
2014,02,14,15,18,11.30
2014,02,14,15,19,19.30
2014,02,14,15,20,25.70
2014,02,14,15,21,27.40
2014,02,14,15,22,19.30
2014,02,14,15,23,24.20
2014,02,14,15,24,19.30
2014,02,14,15,25,14.50
2014,02,14,15,26,9.60
2014,02,14,15,27,24.20
2014,02,14,15,28,27.40
2014,02,14,15,29,24.20
2014,02,14,15,30,27.40
2014,02,14,15,31,20.90
2014,02,14,15,32,25.70
2014,02,14,15,33,27.40
2014,02,14,15,34,22.50
2014,02,14,15,35,29.00
2014,02,14,15,36,37.00
2014,02,14,15,37,22.50
2014,02,14,15,38,25.70
2014,02,14,15,39,27.40
2014,02,14,15,40,37.00
2014,02,14,15,41,27.40
2014,02,14,15,42,25.70
2014,02,14,15,43,20.90
2014,02,14,15,44,16.10
2014,02,14,15,45,22.50
2014,02,14,15,46,17.70
2014,02,14,15,47,22.50
2014,02,14,15,48,17.70
2014,02,14,15,49,22.50
2014,02,14,15,50,24.20
2014,02,14,15,51,25.70
2014,02,14,15,52,9.60
2014,02,14,15,53,25.70
2014,02,14,15,54,20.90
2014,02,14,15,55,27.40
2014,02,14,15,56,17.70
2014,02,14,15,57,17.70
2014,02,14,15,58,17.70
2014,02,14,15,59,22.50
2014,02,14,16,00,16.10
2014,02,14,16,01,17.70
2014,02,14,16,02,14.50
2014,02,14,16,03,20.90
2014,02,14,16,04,17.70
2014,02,14,16,05,11.30
2014,02,14,16,06,11.30
2014,02,14,16,07,16.10
2014,02,14,16,08,12.90
2014,02,14,16,09,9.60
2014,02,14,16,10,17.70
2014,02,14,16,11,14.50
2014,02,14,16,12,14.50
2014,02,14,16,13,16.10
2014,02,14,16,14,16.10
2014,02,14,16,15,9.60
2014,02,14,16,16,14.50
2014,02,14,16,17,14.50
2014,02,14,16,18,11.30
2014,02,14,16,19,16.10
2014,02,14,16,20,19.30
2014,02,14,16,21,9.60
2014,02,14,16,22,8.10
2014,02,14,16,23,9.60
2014,02,14,16,24,17.70
2014,02,14,16,25,14.50
2014,02,14,16,26,9.60
2014,02,14,16,27,6.40
2014,02,14,16,28,9.60
2014,02,14,16,29,8.10
2014,02,14,16,30,9.60
2014,02,14,16,31,17.70
2014,02,14,16,32,14.50
2014,02,14,16,33,16.10
2014,02,14,16,34,17.70
2014,02,14,16,35,9.60
2014,02,14,16,36,9.60
2014,02,14,16,37,12.90
2014,02,14,16,38,12.90
2014,02,14,16,39,9.60
2014,02,14,16,40,16.10
2014,02,14,16,41,9.60
2014,02,14,16,42,6.40
2014,02,14,16,43,8.10
2014,02,14,16,44,9.60
2014,02,14,16,45,11.30
2014,02,14,16,46,16.10
2014,02,14,16,47,16.10
2014,02,14,16,48,8.10
2014,02,14,16,49,11.30
2014,02,14,16,50,16.10
2014,02,14,16,51,16.10
2014,02,14,16,52,19.30
2014,02,14,16,53,16.10
2014,02,14,16,54,9.60
2014,02,14,16,55,8.10
2014,02,14,16,56,16.10
2014,02,14,16,57,17.70
2014,02,14,16,58,20.90
2014,02,14,16,59,17.70
2014,02,14,17,00,11.30
2014,02,14,17,01,16.10
2014,02,14,17,02,14.50
2014,02,14,17,03,17.70
2014,02,14,17,04,17.70
2014,02,14,17,05,17.70
2014,02,14,17,06,12.90
2014,02,14,17,07,17.70
2014,02,14,17,08,11.30
2014,02,14,17,09,16.10
2014,02,14,17,10,17.70
2014,02,14,17,11,19.30
2014,02,14,17,12,11.30
2014,02,14,17,13,11.30
2014,02,14,17,14,19.30
2014,02,14,17,15,17.70
2014,02,14,17,16,16.10
2014,02,14,17,17,11.30
2014,02,14,17,18,16.10
2014,02,14,17,19,11.30
2014,02,14,17,20,16.10
2014,02,14,17,21,11.30
2014,02,14,17,22,16.10
2014,02,14,17,23,12.90
2014,02,14,17,24,9.60
2014,02,14,17,25,6.40
2014,02,14,17,26,9.60
2014,02,14,17,27,11.30
2014,02,14,17,28,9.60
2014,02,14,17,29,8.10
2014,02,14,17,30,6.40
2014,02,14,17,31,8.10
2014,02,14,17,32,8.10
2014,02,14,17,33,8.10
2014,02,14,17,34,6.40
2014,02,14,17,35,6.40
2014,02,14,17,36,8.10
2014,02,14,17,37,6.40
2014,02,14,17,38,3.20
2014,02,14,17,39,6.40
2014,02,14,17,40,6.40
2014,02,14,17,41,8.10
2014,02,14,17,42,8.10
2014,02,14,17,43,19.30
2014,02,14,17,44,16.10
2014,02,14,17,45,16.10
2014,02,14,17,46,11.30
2014,02,14,17,47,14.50
2014,02,14,17,48,14.50
2014,02,14,17,49,14.50
2014,02,14,17,50,14.50
2014,02,14,17,51,11.30
2014,02,14,17,52,19.30
2014,02,14,17,53,24.20
2014,02,14,17,54,22.50
2014,02,14,17,55,14.50
2014,02,14,17,56,11.30
2014,02,14,17,57,9.60
2014,02,14,17,58,14.50
2014,02,14,17,59,8.10
2014,02,14,18,00,9.60
2014,02,14,18,01,11.30
2014,02,14,18,02,11.30
2014,02,14,18,03,9.60
2014,02,14,18,04,8.10
2014,02,14,18,05,9.60
2014,02,14,18,06,8.10
2014,02,14,18,07,11.30
2014,02,14,18,08,16.10
2014,02,14,18,09,14.50
2014,02,14,18,10,9.60
2014,02,14,18,11,16.10
2014,02,14,18,12,19.30
2014,02,14,18,13,17.70
2014,02,14,18,14,16.10
2014,02,14,18,15,16.10
2014,02,14,18,16,16.10
2014,02,14,18,17,12.90
2014,02,14,18,18,17.70
2014,02,14,18,19,22.50
2014,02,14,18,20,19.30
2014,02,14,18,21,16.10
2014,02,14,18,22,20.90
2014,02,14,18,23,17.70
2014,02,14,18,24,17.70
2014,02,14,18,25,12.90
2014,02,14,18,26,19.30
2014,02,14,18,27,17.70
2014,02,14,18,28,16.10
2014,02,14,18,29,14.50
2014,02,14,18,30,19.30
2014,02,14,18,31,16.10
2014,02,14,18,32,14.50
2014,02,14,18,33,17.70
2014,02,14,18,34,24.20
2014,02,14,18,35,20.90
2014,02,14,18,36,20.90
2014,02,14,18,37,16.10
2014,02,14,18,38,22.50
2014,02,14,18,39,22.50
2014,02,14,18,40,20.90
2014,02,14,18,41,20.90
2014,02,14,18,42,17.70